Location: Omaha
(41.2590°N, 95.9380°W)
Time: 19:27:56
(UTC-05:00)

ISS - Pass Details

Date: 12 October 2017
Orbit: 400 x 408 km, 51.6° (Epoch: 24 October)

Event Time Altitude Azimuth Distance (km) Brightness Sun altitude
Rises 20:07:05 0° 307° (NW) 2,327 1.0 -15.8°
Reaches altitude 10° 20:09:11 10° 309° (NW) 1,465 -0.2 -16.2°
Maximum altitude 20:12:28 69° 34° (NE) 437 -3.9 -16.8°
Enters shadow 20:13:08 50° 97° (E) 524 -3.7 -17.0°
